#timestamp,LO_Frequency,Hit,StdDev 
1505750415.1,286047000.7,N
1505750416.0,286047000.7,N
1505750435.8,286046998.5,N
1505750455.6,286047000.3,N
1505750475.5,286047002.5,N
1505750495.3,286047003.3,N
1505750515.1,286047005.4,N
1505750535.9,286047002.0,N
1505750555.7,286047001.2,N
1505750575.6,286047000.7,N
1505750595.4,286047000.4,N
1505750615.2,286047000.8,N
1505750635.1,286046999.1,N
1505750636.0,286046999.1,N
1505750655.8,286046998.8,N
1505750675.7,286047000.8,N
1505750695.5,286047001.0,N
1505750715.3,286047001.5,N
1505750735.2,286047001.3,N
1505750755.0,286047004.3,N
1505750755.9,286047004.3,N
1505750775.7,286047003.6,N
1505750795.6,286047003.1,N
1505750815.4,286047001.4,N
1505750835.3,286047001.9,N
1505750855.1,286047002.7,N
1505750856.0,286047002.7,N
1505750875.8,286047002.5,N
1505750895.7,286046999.9,N
1505750915.5,286047001.5,N
1505750935.3,286047001.9,N
1505750955.2,286047007.1,Y
1505750975.0,286047007.0,P
1505750975.9,286047007.0,N
1505750995.8,286047001.7,N
1505751015.6,286046998.2,N
1505751035.4,286046998.7,N
1505751055.3,286047000.3,N
1505751075.1,286046996.5,N
1505751095.9,286046998.0,N
1505751115.7,286046997.9,N
1505751135.5,286046997.0,N
1505751155.4,286046998.7,N
1505751175.2,286047005.6,N
1505751195.0,286047007.6,N
1505751195.9,286047007.6,N
1505751215.8,286047005.4,N
1505751235.6,286047002.0,N
1505751255.5,286047000.5,N
1505751275.3,286047001.1,N
1505751295.1,286046998.5,N
1505751315.9,286046999.0,N
1505751335.7,286047011.9,Y
1505751355.5,286047002.1,P
1505751375.4,286047001.8,P
1505751395.2,286047001.2,P
1505751415.1,286047000.8,N
1505751416.0,286047000.8,N
1505751435.8,286046999.4,N
1505751455.6,286046996.7,Y
1505751475.5,286046997.7,P
1505751495.3,286046997.5,N
1505751515.2,286046993.6,P
1505751535.9,286046994.7,N
1505751555.7,286046997.0,N
1505751575.6,286046999.9,N
1505751595.4,286047002.3,N
1505751615.2,286047004.0,N
1505751635.1,286047001.4,N
1505751636.0,286047001.4,N
1505751655.8,286047005.6,N
1505751675.7,286047003.7,N
1505751695.5,286047003.2,N
1505751715.3,286047001.2,N
1505751735.2,286046999.2,N
1505751755.0,286046999.2,N
1505751755.9,286046999.2,N
1505751775.8,286046999.5,N
1505751795.6,286046999.4,N
1505751815.4,286046997.0,N
1505751835.3,286046997.1,N
1505751855.1,286046995.8,N
1505751875.8,286046994.9,N
1505751895.7,286046995.6,N
1505751915.5,286046995.2,N
1505751935.3,286046996.2,N
1505751955.2,286046995.4,N
1505751975.0,286046997.7,N
1505751975.9,286046997.7,N
1505751995.8,286046997.1,N
1505752015.6,286046999.1,N
1505752035.4,286047002.0,N
1505752055.3,286047004.6,N
1505752075.1,286047007.5,N
1505752095.9,286047005.1,N
1505752115.7,286047002.0,N
1505752135.5,286046998.1,N
1505752155.4,286046998.7,N
1505752175.2,286046999.1,N
1505752195.0,286047002.6,N
1505752195.9,286047002.6,N
1505752215.8,286047000.9,N
1505752235.6,286046998.3,N
1505752255.5,286046999.3,N
1505752275.3,286046999.3,N
1505752295.1,286046997.8,N
1505752315.9,286046998.4,N
1505752335.7,286047001.0,N
1505752355.5,286047005.2,N
1505752375.4,286047007.8,N
1505752395.2,286047008.8,N
1505752415.1,286047003.5,N
1505752416.0,286047003.5,N
1505752435.8,286047001.8,N
1505752455.6,286047002.0,N
1505752475.5,286047002.1,N
1505752495.3,286047002.1,N
1505752515.1,286046999.8,N
1505752535.9,286047002.6,N
1505752555.7,286047002.9,N
1505752575.6,286047007.2,N
1505752595.4,286047006.5,N
1505752615.2,286047009.2,N
1505752635.1,286047004.2,N
1505752636.0,286047004.2,N
1505752655.8,286047003.9,N
1505752675.7,286047001.7,N
1505752695.5,286047003.6,N
1505752715.3,286047002.3,N
1505752735.2,286047000.6,N
1505752755.9,286046996.6,N
1505752775.7,286046998.0,N
1505752795.6,286046996.6,N
1505752815.4,286046999.0,N
1505752835.3,286046998.7,N
1505752855.1,286047000.0,N
1505752856.0,286047000.0,N
1505752875.8,286047001.9,N
1505752895.7,286047000.6,N
1505752915.5,286046999.7,N
1505752935.3,286047001.5,N
1505752955.2,286047004.0,N
1505752975.0,286047003.3,N
1505752975.9,286047003.3,N
1505752995.8,286047003.9,N
1505753015.6,286047003.8,N
1505753035.4,286047004.3,N
1505753055.3,286047003.7,N
1505753075.1,286047001.9,N
1505753095.8,286047001.8,N
1505753115.7,286047002.2,N
1505753135.5,286046998.5,N
1505753155.4,286047000.4,N
1505753175.2,286047000.1,N
1505753195.0,286047003.5,N
1505753195.9,286047003.5,N
1505753215.8,286047003.3,N
1505753235.6,286047004.2,N
1505753255.4,286047003.9,N
1505753275.3,286047003.3,N
1505753295.1,286047001.3,N
1505753315.9,286047000.0,N
1505753335.7,286046999.0,N
1505753355.5,286046998.4,N
1505753375.4,286046996.5,N
1505753395.2,286047001.1,N
1505753415.0,286047002.6,N
1505753416.0,286047002.6,N
1505753435.8,286047000.3,N
1505753455.6,286047000.5,N
1505753475.5,286046997.3,N
1505753495.3,286046997.8,N
1505753515.1,286046997.6,N
1505753535.9,286046994.5,N
1505753555.7,286046994.1,N
1505753575.6,286046993.9,N
1505753595.4,286046994.5,N
1505753615.2,286046991.9,N
1505753635.1,286046994.6,N
1505753636.0,286046994.6,N
1505753655.8,286046993.3,N
1505753675.6,286046994.6,N
1505753695.5,286046995.2,N
1505753715.3,286046997.9,N
1505753735.2,286046997.8,N
1505753755.9,286046997.4,N
1505753775.7,286046996.9,N
1505753795.6,286046998.9,N
1505753815.4,286047000.8,N
1505753835.2,286047001.3,N
1505753855.1,286047003.1,N
1505753856.0,286047003.1,N
1505753875.8,286047005.2,N
1505753895.7,286047005.9,N
1505753915.5,286047007.0,N
1505753935.3,286047005.8,N
1505753955.2,286047004.7,N
1505753975.0,286047004.3,N
1505753975.9,286047004.3,N
1505753995.8,286046998.7,N
